Location: Lombard
(41.8800°N, 88.0080°W)
Time: 22:36:45
(UTC-06:00)

Hubble Space Telescope - Visible Passes

Search period start: 07 December 2025 00:00
Search period end: 17 December 2025 00:00
Orbit: 480 x 483 km, 28.5° (Epoch: 07 December)

Date Brightness Start Highest point End Pass type
(mag) Time Alt. Az. Time Alt. Az. Time Alt. Az.
11 Dec 3.3 18:33:32 10° S 18:34:20 11° S 18:34:20 11° S visible
12 Dec 3.2 18:04:18 10° S 18:05:09 11° S 18:06:00 10° SSE visible
13 Dec 3.3 17:35:03 10° S 17:35:55 11° S 17:36:46 10° SSE visible
14 Dec 3.4 17:05:47 10° S 17:06:39 11° S 17:07:32 10° SSE visible
